TimeCDT,TemperatureF,Dew PointF,Humidity,Sea Level PressureIn,VisibilityMPH,Wind Direction,Wind SpeedMPH,Gust SpeedMPH,PrecipitationIn,Events,Conditions,WindDirDegrees,DateUTC
12:56 AM,75.9,63.0,64,29.95,10.0,SE,10.4,-,N/A,,Clear,140,2012-10-06 05:56:00
1:56 AM,73.9,63.0,68,29.94,10.0,SSE,8.1,-,N/A,,Clear,160,2012-10-06 06:56:00
2:56 AM,72.9,63.0,71,29.94,10.0,SSE,9.2,-,N/A,,Clear,160,2012-10-06 07:56:00
3:56 AM,72.0,63.9,76,29.93,10.0,SSE,8.1,-,N/A,,Clear,150,2012-10-06 08:56:00
4:56 AM,70.0,63.9,81,29.92,10.0,SE,8.1,-,N/A,,Clear,140,2012-10-06 09:56:00
5:56 AM,68.9,63.9,84,29.93,10.0,SE,6.9,-,N/A,,Clear,140,2012-10-06 10:56:00
6:56 AM,68.9,63.9,84,29.94,10.0,ESE,9.2,-,N/A,,Clear,120,2012-10-06 11:56:00
7:56 AM,68.0,63.9,87,29.96,10.0,East,5.8,-,N/A,,Clear,100,2012-10-06 12:56:00
8:56 AM,72.9,64.9,76,29.98,10.0,SE,13.8,-,N/A,,Clear,130,2012-10-06 13:56:00
9:56 AM,77.9,65.8,66,29.99,10.0,SE,12.7,-,N/A,,Clear,130,2012-10-06 14:56:00
10:56 AM,81.0,63.9,56,29.99,10.0,SE,9.2,-,N/A,,Clear,130,2012-10-06 15:56:00
11:56 AM,84.9,59.9,43,29.98,10.0,SE,9.2,-,N/A,,Clear,140,2012-10-06 16:56:00
12:56 PM,86.9,56.8,36,29.96,10.0,SSE,10.4,-,N/A,,Clear,150,2012-10-06 17:56:00
1:56 PM,90.0,55.9,31,29.92,10.0,SE,9.2,-,N/A,,Clear,130,2012-10-06 18:56:00
2:56 PM,91.9,55.9,30,29.89,10.0,East,9.2,-,N/A,,Clear,100,2012-10-06 19:56:00
3:56 PM,91.9,52.9,26,29.87,10.0,East,9.2,-,N/A,,Clear,100,2012-10-06 20:56:00
4:56 PM,91.9,52.9,26,29.86,10.0,SE,12.7,-,N/A,,Clear,130,2012-10-06 21:56:00
5:56 PM,91.9,52.9,26,29.86,10.0,ESE,12.7,-,N/A,,Clear,110,2012-10-06 22:56:00
6:56 PM,88.9,54.9,31,29.87,10.0,ESE,10.4,-,N/A,,Clear,110,2012-10-06 23:56:00
7:56 PM,84.9,56.8,38,29.89,10.0,East,8.1,-,N/A,,Clear,100,2012-10-07 00:56:00
8:56 PM,82.9,59.9,46,29.91,10.0,East,9.2,-,N/A,,Clear,90,2012-10-07 01:56:00
9:56 PM,81.0,61.9,52,29.94,10.0,East,11.5,-,N/A,,Clear,100,2012-10-07 02:56:00
10:56 PM,79.0,63.9,60,29.96,10.0,East,11.5,-,N/A,,Clear,90,2012-10-07 03:56:00
11:56 PM,75.9,63.9,66,29.97,10.0,East,9.2,-,N/A,,Clear,80,2012-10-07 04:56:00